Regional Weather Roundup
Issued by NWS

Home | Current Version | Previous Version | Text Only | Print | Product List | Glossary On
Versions: 1 2 3 4 5 6 7 8 9 10 11 12 13 14 15 16 17 18 19 20 21 22 23 24 25 26 27 28 29 30 31 32 33 34 35 36 37 38 39 40 41 42 43 44 45 46 47 48 49 50
000
ASUS45 KSLC 281010
RWRUT

UTAH REGIONAL WEATHER ROUNDUP
NATIONAL WEATHER SERVICE SALT LAKE CITY UT
400 AM MDT SAT MAR 28 2015

UTZ001>011-023>025-281100-

NORTHERN UTAH

CITY           SKY/WX    TMP DP  RH WIND       PRES   REMARKS
BRIGHAM CITY   CLEAR     40  35  80 CALM      30.11F
HILL AFB       CLEAR     51  29  42 E17       30.11F
LOGAN          CLEAR     42  34  73 CALM      30.11F
OGDEN          CLEAR     49  30  48 S9        30.10S
PROVO AIRPORT  CLEAR     39  28  65 E5        30.14F
SALT LAKE CITY CLEAR     53  32  44 S9        30.09F
VERNAL         CLEAR     40  26  57 CALM      30.16F
WENDOVER       CLEAR     46  28  49 SW3       30.09F
HEBER CITY     CLEAR     32  28  86 CALM      30.21S
WEST JORDAN    CLEAR     54  34  47 S9        30.12F

$$

UTZ012>022-026-027-281100-

SOUTHERN/CENTRAL UTAH

CITY           SKY/WX    TMP DP  RH WIND       PRES   REMARKS
BLANDING       PTCLDY    42  24  47 NE6       30.29S
BRYCE CANYON   PTCLDY    33  24  69 W10       30.32F WCI  25
CEDAR CITY     CLEAR     40  25  55 N3        30.20F
DELTA          CLEAR     41  29  63 E7        30.13F
HANKSVILLE     CLEAR     37  21  52 CALM      30.16F
MILFORD        CLEAR     47  24  40 SW17      30.16F
MOAB/CYNLANDS  CLEAR     44  21  40 CALM      30.12F
PRICE          CLEAR     45  22  40 CALM      30.19F
ST GEORGE      SUNNY     54  25  32 SE7       30.14R
KANAB          CLEAR     36  25  64 NE7       30.25S WCI  30

$$

REGIONAL REPORTS     COLORADO/ARIZONA

CITY           SKY/WX    TMP DP  RH WIND       PRES   REMARKS
CRAIG, CO      CLEAR     30  26  85 CALM      30.21F
GRAND JUNCTION CLEAR     46  25  43 SE13      30.16F
RIFLE          CLEAR     35  26  69 CALM      30.22S
MONTROSE       CLEAR     41  25  53 SE7       30.24S
CORTEZ         CLEAR     32  21  64 E8        30.24F WCI  25
PAGE, AZ       CLEAR     57  22  25 CALM      30.15F
GRAND CANYON   PTCLDY    27  19  72 CALM      30.30F
KINGMAN        CLEAR     48  26  42 CALM      30.14S
FLAGSTAFF      CLEAR     34  21  59 CALM      30.31F

$$

REGIONAL REPORTS    NEVADA/IDAHO/WYOMING

CITY           SKY/WX    TMP DP  RH WIND       PRES   REMARKS
LAS VEGAS, NV  CLEAR     67  24  19 S10       30.01S
ELY            CLEAR     45  19  35 S7        30.21F
ELKO           CLEAR     37  26  64 CALM      30.14S
POCATELLO, ID  CLEAR     52  29  41 CALM      30.04F
BURLEY         CLEAR     56  29  35 S16       30.01F
EVANSTON, WY   PTCLDY    40  25  55 S9        30.21F WCI  34
ROCK SPRINGS   CLEAR     40  27  59 SW10      30.19F WCI  33
KEMMERER       CLEAR     34  28  80 NW6       30.21F WCI  29

$$


USA.gov is the U.S. government's official web portal to all federal, state and local government web resources and services.